{"data":{"norad_id":65904,"intl_designator":"2025-224Y","name":"STARLINK-35348","alt_names":[],"object_type":"PAYLOAD","status":"ACTIVE","operator":null,"country":"US","launch_date":"2025-10-07","launch_site_code":"AFETR","launch_vehicle":null,"mission":null,"orbit_class":"UNKNOWN","rcs_meters":null,"size_class":null,"mass_kg":null,"dimensions":null,"purposes":["comms"],"wikipedia_slug":null,"has_3d_model":false,"image_url":null,"decayed_at":null,"tle_current":{"epoch":"2026-05-24T22:29:01.629024Z","epoch_age_seconds":76627,"freshness":"FRESH","line1":"1 65904U 25224Y   26144.93682441  .00021692  00000+0  65135-3 0  9995","line2":"2 65904  53.1582  16.0791 0000954  91.0035 269.1077 15.34396011 36510","mean_motion":15.34396011,"eccentricity":9.54e-5,"inclination_deg":53.1582,"raan_deg":16.0791,"arg_perigee_deg":91.0035,"mean_anomaly_deg":269.1077,"bstar":0.00065135,"rev_number":3651,"period_min":93.848002059229,"perigee_km":462.06247909144,"apogee_km":463.36771367143,"semimajor_km":6840.8520963814,"source":"CELESTRAK","updated_at":"2026-05-25T13:38:20.983946Z"}}}